CZ-11 R/B (52154 NORAD) Tracking and Keplerian Element Data

This shows tracking and keplerian element data for the satellite.

Feedback or suggestion? Click here.




ElementValue
Catalog52154
NameCZ-11 R/B
Epoch Orbit96
Epoch Day95.24200789
Epoch Year2022
RAAN146.0149
Inclination97.6132
Eccentricity0.0220893
Argument of Perigee297.6391
Mean Anonmoly60.7173
Mean Motion15.9966155
Decay Rate0.04514892
L11 52154U 22032B 22095.24200789 .04514892 27382-5 17234-3 0 9996
L22 52154 97.6132 146.0149 0220893 297.6391 60.7173 15.99661550 969



Live tracking and technical data element details for CZ-11 R/B (NORAD 52154). CZ-11 R/B can be tracked NOW for your location showing map with azimuth and elevation plus other details from your city location.







IsCatalogInMostPopularTable: catalog: 52154, numindb: 19
Update: records affected: 1



GetName: 52154 CZ-11 R/B

Hit Count: updated at: Sun, 28 May 2023 19:32:55 GMT